TimeEDT,TemperatureF,Dew PointF,Humidity,Sea Level PressureIn,VisibilityMPH,Wind Direction,Wind SpeedMPH,Gust SpeedMPH,PrecipitationIn,Events,Conditions,WindDirDegrees,DateUTC
12:15 AM,46.4,42.8,87,30.07,7.0,East,3.5,-,0.01,,Drizzle,90,2014-04-04 04:15:00
12:35 AM,46.4,42.8,87,30.08,10.0,Calm,Calm,-,0.01,,Light Drizzle,0,2014-04-04 04:35:00
12:55 AM,46.4,42.8,87,30.08,5.0,Calm,Calm,-,N/A,Rain,Light Rain,0,2014-04-04 04:55:00
1:15 AM,46.4,42.8,87,30.08,7.0,Calm,Calm,-,N/A,Rain,Light Rain,0,2014-04-04 05:15:00
1:35 AM,46.4,42.8,87,30.08,7.0,Calm,Calm,-,0.01,Rain,Light Rain,0,2014-04-04 05:35:00
1:55 AM,46.4,42.8,87,30.07,7.0,Calm,Calm,-,N/A,,Drizzle,0,2014-04-04 05:55:00
2:15 AM,46.4,42.8,87,30.06,5.0,Calm,Calm,-,N/A,,Light Drizzle,0,2014-04-04 06:15:00
2:35 AM,46.4,42.8,87,30.07,5.0,Calm,Calm,-,N/A,Rain,Light Rain,0,2014-04-04 06:35:00
2:55 AM,46.4,42.8,87,30.06,5.0,Calm,Calm,-,N/A,Rain,Light Rain,0,2014-04-04 06:55:00
3:15 AM,46.4,42.8,87,30.05,7.0,East,3.5,-,0.01,Rain,Light Rain,90,2014-04-04 07:15:00
3:35 AM,46.4,41.0,81,30.06,7.0,Calm,Calm,-,0.01,Rain,Light Rain,0,2014-04-04 07:35:00
3:55 AM,46.4,42.8,87,30.05,5.0,Calm,Calm,-,0.01,Rain,Rain,0,2014-04-04 07:55:00
4:15 AM,46.4,42.8,87,30.06,4.0,Calm,Calm,-,0.01,,Drizzle,0,2014-04-04 08:15:00
4:35 AM,44.6,41.0,87,30.05,4.0,SE,3.5,-,0.01,,Light Drizzle,140,2014-04-04 08:35:00
4:55 AM,44.6,41.0,87,30.06,4.0,Calm,Calm,-,N/A,Rain,Light Rain,0,2014-04-04 08:55:00
5:15 AM,44.6,41.0,87,30.05,3.0,ESE,3.5,-,N/A,Rain,Rain,110,2014-04-04 09:15:00
5:35 AM,44.6,41.0,87,30.04,3.0,East,4.6,-,N/A,Rain,Light Rain,100,2014-04-04 09:35:00
5:55 AM,44.6,41.0,87,30.05,7.0,East,3.5,-,N/A,Rain,Rain,90,2014-04-04 09:55:00
6:15 AM,44.6,39.2,81,30.05,5.0,East,3.5,-,N/A,Rain,Rain,100,2014-04-04 10:15:00
6:35 AM,44.6,39.2,81,30.05,4.0,East,3.5,-,0.01,,Drizzle,90,2014-04-04 10:35:00
6:45 AM,41.0,39.2,93,30.05,2.2,East,6.9,-,N/A,Rain,Light Rain,90,2014-04-04 10:45:00
7:45 AM,41.0,39.2,93,30.06,3.0,East,5.8,-,N/A,,Overcast,80,2014-04-04 11:45:00
8:45 AM,42.8,37.4,81,30.06,5.0,East,5.8,-,N/A,,Overcast,100,2014-04-04 12:45:00
9:45 AM,42.8,37.4,81,30.04,7.0,SE,9.2,-,N/A,,Overcast,130,2014-04-04 13:45:00
10:45 AM,42.8,37.4,81,30.04,7.0,SE,6.9,-,N/A,,Overcast,130,2014-04-04 14:45:00
11:20 AM,42.8,37.4,81,30.06,2.2,SSE,9.2,-,N/A,,Overcast,150,2014-04-04 15:20:00
11:45 AM,41.0,37.4,87,30.05,2.5,SE,11.5,17.3,N/A,,Drizzle,130,2014-04-04 15:45:00
12:45 PM,41.0,37.4,87,30.03,2.5,ESE,6.9,18.4,N/A,,Light Drizzle,110,2014-04-04 16:45:00
1:45 PM,41.0,37.4,87,30.00,2.5,ESE,9.2,18.4,N/A,,Overcast,120,2014-04-04 17:45:00
2:45 PM,41.0,37.4,87,29.99,5.0,ESE,9.2,-,N/A,,Overcast,110,2014-04-04 18:45:00
3:45 PM,41.0,37.4,87,29.93,4.0,ESE,11.5,-,N/A,,Overcast,110,2014-04-04 19:45:00
4:45 PM,41.0,37.4,87,29.91,6.0,ESE,10.4,-,N/A,,Overcast,110,2014-04-04 20:45:00
5:45 PM,41.0,37.4,87,29.87,3.0,ESE,12.7,-,N/A,,Overcast,120,2014-04-04 21:45:00
5:50 PM,41.0,37.4,87,29.86,2.0,East,8.1,-,N/A,,Overcast,100,2014-04-04 21:50:00
6:45 PM,41.0,39.2,93,29.88,2.0,East,8.1,-,N/A,Rain,Light Rain,100,2014-04-04 22:45:00
7:45 PM,41.0,39.2,93,29.85,3.0,East,4.6,13.8,N/A,,Drizzle,100,2014-04-04 23:45:00
8:45 PM,41.0,39.2,93,29.86,3.0,NNE,10.4,-,N/A,,Overcast,20,2014-04-05 00:45:00
9:45 PM,39.2,37.4,93,29.83,2.5,ENE,9.2,-,N/A,,Overcast,60,2014-04-05 01:45:00
10:15 PM,41.0,39.2,93,29.81,2.0,NNE,9.2,-,N/A,,Overcast,30,2014-04-05 02:15:00
10:35 PM,41.0,39.2,93,29.79,2.0,NE,9.2,-,N/A,,Overcast,40,2014-04-05 02:35:00
10:55 PM,41.0,39.2,93,29.79,2.0,NNE,8.1,-,N/A,,Overcast,30,2014-04-05 02:55:00
11:15 PM,41.0,39.2,93,29.80,2.5,NNE,5.8,-,N/A,,Overcast,20,2014-04-05 03:15:00
11:35 PM,41.0,39.2,93,29.79,2.0,NNE,3.5,-,N/A,Rain,Light Rain,30,2014-04-05 03:35:00
11:55 PM,41.0,39.2,93,29.78,2.5,NNE,4.6,-,N/A,,Overcast,20,2014-04-05 03:55:00